Left ArrowRight Arrow

33.98154, -81.23621

Hourly Observations for June 18, 2024

Temp ( °F °C ) Dew Point ( °F °C ) Humidity (%) Winds ( mph kmh ) Pressure ( in mb ) Visibility ( mi km ) Precip ( " mm )
12:56 am 00:56 Partly Cloudy 75 23.9 65 18.3 71 71 E 5 7 30.16 1022 10 16 0.00 0.00
1:56 am 01:56 Partly Cloudy 73 22.8 65 18.3 76 76 E 5 7 30.16 1022 10 16 0.00 0.00
2:56 am 02:56 Mostly Cloudy 72 22.2 64 17.8 76 76 E 3 6 30.16 1021 10 16 0.00 0.00
3:56 am 03:56 Partly Cloudy 72 22.2 64 17.8 76 76 Calm 30.15 1021 10 16 0.00 0.00
4:56 am 04:56 Mostly Clear 71 21.7 64 17.8 79 79 Calm 30.14 1021 10 16 0.00 0.00
5:56 am 05:56 Partly Cloudy 71 21.7 65 18.3 81 81 NNE 3 6 30.15 1021 10 16 0.00 0.00
6:56 am 06:56 Partly Cloudy 71 21.7 65 18.3 81 81 E 3 6 30.16 1022 10 16 0.00 0.00
7:56 am 07:56 Cloudy 73 22.8 67 19.4 81 81 E 3 6 30.18 1022 10 16 0.00 0.00
8:56 am 08:56 Partly Cloudy 78 25.6 66 18.9 67 67 E 9 15 30.19 1023 10 16 0.00 0.00
9:56 am 09:56 Partly Cloudy 81 27.2 66 18.9 61 61 E 10 17 30.19 1022 10 16 0.00 0.00
10:56 am 10:56 Partly Cloudy 83 28.3 64 17.8 53 53 E 8 13 30.19 1022 10 16 0.00 0.00
11:56 am 11:56 Partly Cloudy 85 29.4 64 17.8 50 50 E 12 19 30.18 1022 10 16 0.00 0.00
12:56 pm 12:56 Partly Cloudy 87 30.6 63 17.2 45 45 ESE 14 22 30.18 1022 10 16 0.00 0.00
1:56 pm 13:56 Partly Cloudy 89 31.7 63 17.2 42 42 E 15 24 30.16 1021 10 16 0.00 0.00
2:56 pm 14:56 Partly Cloudy 89 31.7 62 16.7 41 41 VRB 5 7 30.16 1021 10 16 0.00 0.00
3:56 pm 15:56 Partly Cloudy 90 32.2 62 16.7 40 40 E 13 20 30.15 1021 10 16 0.00 0.00
4:56 pm 16:56 Partly Cloudy 91 32.8 62 16.7 38 38 E 12 19 30.14 1021 10 16 0.00 0.00
5:56 pm 17:56 Partly Cloudy 90 32.2 61 16.1 38 38 E 15 24 30.13 1020 10 16 0.00 0.00
6:56 pm 18:56 Partly Cloudy 88 31.1 62 16.7 42 42 ESE 14 22 30.12 1020 10 16 0.00 0.00
7:56 pm 19:56 Partly Cloudy 85 29.4 62 16.7 46 46 ESE 12 19 30.13 1020 10 16 0.00 0.00
8:56 pm 20:56 Partly Cloudy 82 27.8 63 17.2 53 53 ESE 12 19 30.15 1021 10 16 0.00 0.00
9:56 pm 21:56 Clear 79 26.1 63 17.2 58 58 ESE 6 9 30.17 1022 10 16 0.00 0.00
10:56 pm 22:56 Clear 76 24.4 64 17.8 67 67 ESE 8 13 30.20 1023 10 16 0.00 0.00
11:56 pm 23:56 Clear 75 23.9 63 17.2 66 66 E 7 11 30.20 1023 10 16 0.00 0.00

Powered by Vaisala Xweather